[[{"header":{"parameterUnit":"m.s-1","parameterCategory":1,"la1":30.2991,"la2":30.254,"lo1":-89.0895,"lo2":-89.0444,"dy":0.0017,"dx":0.0017,"nx":28,"ny":28,"refTime":"2023-11-02T09:00:00:Z","depth":0,"parameterNumber":2,"parameterNumberName":"U-component_of_WINDS"},"data":[0,0,0,0,0,0,0,0,0,0,0,0,0,0,0,0,0,0,0,0,0,0,0,0,0,0,0,0,0,0,0,0,0,0,0,0,0,0,0,0,0,0,0,0,0,0,0,0,0,0,0,0,0,0,0,0,0,0,-2.6356,-2.6357,0,-2.6465,-2.6466,-2.6467,-2.6403,-2.64,-2.6397,-2.6394,-2.6508,-2.6514,-2.652,0,0,0,0,0,0,0,0,0,0,0,0,0,-2.6096,-2.6101,-2.6356,-2.6357,-2.6359,-2.6465,-2.6466,-2.6468,-2.6404,-2.64,-2.6396,-2.6393,-2.6506,-2.6513,-2.6521,0,0,0,0,0,0,0,0,0,0,0,0,0,-2.6207,-2.6102,-2.6356,-2.634,-2.6339,-2.6464,-2.6466,-2.6468,-2.6405,-2.64,-2.6395,-2.6391,-2.6504,-2.6513,-2.6522,-2.667,0,0,-2.6549,-2.6553,0,0,0,0,0,0,0,0,-2.6201,-2.6217,-2.6341,-2.6341,-2.6341,-2.6416,-2.6416,-2.6536,-2.6406,-2.638,-2.6394,-2.6389,-2.6482,-2.6492,-2.6523,-2.6675,-2.668,-2.655,-2.6555,-2.6559,-2.6561,0,0,0,0,0,0,0,-2.6193,-2.6212,-2.6399,-2.6343,-2.6343,-2.6328,-2.6338,-2.6438,-2.6456,-2.6382,-2.6377,-2.6391,-2.6481,-2.6514,-2.6525,-2.6681,-2.6549,-2.6557,-2.6563,-2.6566,-2.6962,-2.6967,0,0,0,0,0,0,-2.6186,-2.6206,-2.6396,-2.6402,-2.6258,-2.6336,-2.6348,-2.6396,-2.6454,-2.6459,-2.6395,-2.6388,-2.6501,-2.6515,-2.6529,-2.6707,-2.6559,-2.6567,-2.6572,-2.6957,-2.6963,-2.6969,0,0,0,0,0,0,-2.6181,-2.6204,-2.6391,-2.6303,-2.6326,-2.6346,-2.64,-2.6401,-2.6435,-2.6464,-2.6467,-2.6426,-2.6498,-2.6516,-2.6635,-2.671,-2.6571,-2.6579,-2.6951,-2.6959,-2.6966,-2.7065,0,0,0,0,0,0,-2.6174,-2.6202,-2.6258,-2.6305,-2.6331,-2.6496,-2.6405,-2.6407,-2.645,-2.6441,-2.6494,-2.6498,-2.6496,-2.6622,-2.6644,-2.672,-2.6586,-2.6944,-2.6954,-2.6963,-2.7055,-2.7075,-2.7092,0,0,0,0,0,-2.6165,-2.6282,-2.6261,-2.6285,-2.6401,-2.65,-2.6515,-2.6509,-2.6456,-2.6513,-2.6532,-2.6497,-2.6698,-2.6635,-2.6659,-2.6739,-2.6939,-2.6951,-2.6963,-2.7047,-2.7071,-2.7092,0,0,0,0,0,0,-2.6245,-2.6288,-2.6266,-2.6401,-2.6448,-2.6489,-2.6561,-2.6535,-2.6598,-2.6587,-2.6578,-2.659,-2.6715,-2.6738,-2.6667,-2.6886,-2.681,-2.6827,-2.6866,-2.689,-2.6908,-2.6901,-2.6593,0,0,0,0,0,-2.6279,-2.6355,-2.6388,-2.6505,-2.6529,-2.6541,-2.6584,-2.6575,-2.6623,-2.6643,-2.667,-2.6719,-2.6793,-2.6842,-2.6912,-2.7057,-2.7069,-2.7124,-2.7142,-2.7157,-2.7173,-2.7253,-2.7279,-2.7007,-2.7007,-2.7006,0,0,-2.6349,-2.6382,-2.6431,-2.6522,-2.6557,-2.6637,-2.6558,-2.6646,-2.6706,-2.6656,-2.6771,-2.6792,-2.6846,-2.6979,-2.7039,-2.7003,-2.725,-2.7172,-2.7184,-2.7192,-2.7268,-2.7294,-2.7317,-2.7015,-2.7013,-2.7012,0,0,-2.6519,-2.655,-2.6651,-2.6688,-2.6741,-2.6748,-2.6772,-2.6818,-2.683,-2.6944,-2.6909,-2.698,-2.7107,-2.7148,-2.7185,-2.7369,-2.734,-2.7391,-2.749,-2.7568,-2.759,-2.7609,-2.7677,-2.7701,-2.7406,-2.7407,-2.7407,0,-2.66,-2.6718,-2.6707,-2.6798,-2.684,-2.6797,-2.6901,-2.6936,-2.701,-2.7041,-2.6998,-2.7157,-2.719,-2.7333,-2.7378,-2.7408,-2.7437,-2.7387,-2.7587,-2.7606,-2.7624,-2.7689,-2.7714,-2.7413,-2.7412,-2.7411,-2.7411,0,-2.6817,-2.6899,-2.6975,-2.7047,-2.7097,-2.7194,-2.7198,-2.725,-2.7236,-2.7248,-2.7366,-2.7403,-2.748,-2.7513,-2.7501,-2.7655,-2.763,-2.7588,-2.7513,-2.7656,-2.7717,-2.7741,-2.7422,-2.7419,-2.7418,-2.7416,0,0,-2.7043,-2.7106,-2.7134,-2.7166,-2.7221,-2.7286,-2.7381,-2.7455,-2.7501,-2.7553,-2.7634,-2.7742,-2.7703,-2.7745,-2.7736,-2.7805,-2.7951,-2.7754,-2.7755,-2.7791,-2.8125,-2.8159,-2.8188,-2.793,-2.7935,-2.7939,-2.8121,0,-2.7218,-2.7383,-2.7375,-2.7531,-2.7608,-2.7568,-2.765,-2.7694,-2.7707,-2.7775,-2.779,-2.7868,-2.7809,-2.7834,-2.79,-2.7919,-2.8018,-2.7905,-2.8008,-2.8011,-2.7998,-2.8219,-2.8255,-2.8426,-2.8145,-2.8149,-2.8152,0,-2.7444,-2.7504,-2.7667,-2.7711,-2.7743,-2.7817,-2.7886,-2.795,-2.7999,-2.8004,-2.805,-2.8031,-2.8128,-2.8048,-2.8183,-2.8107,-2.8147,-2.8163,-2.8169,-2.8181,-2.8092,-2.8239,-2.848,-2.8507,-2.8188,-2.8185,-2.8183,0,-2.7596,-2.7716,-2.783,-2.7858,-2.7912,-2.7965,-2.799,-2.8034,-2.8079,-2.8139,-2.8168,-2.8238,-2.8278,-2.8333,-2.8333,-2.8274,-2.8471,-2.839,-2.8479,-2.848,-2.8525,-2.8523,-2.8778,-2.8547,-2.8546,-2.8546,-2.8545,0,-2.7794,-2.7896,-2.7899,-2.7969,-2.8082,-2.8072,-2.8184,-2.8204,-2.8243,-2.8317,-2.8285,-2.8356,-2.835,-2.8422,-2.8422,-2.8535,-2.8552,-2.856,-2.856,-2.8565,-2.8565,-2.8594,-2.8583,-2.8552,-2.8551,-2.855,-2.8548,0,-2.7984,-2.799,-2.8111,-2.8151,-2.8163,-2.8246,-2.828,-2.8348,-2.8357,-2.8451,-2.8473,-2.8488,-2.8571,-2.8576,-2.8671,-2.8671,-2.8809,-2.8794,-2.8793,-2.8791,-2.8881,-2.8874,-2.9167,-2.9206,-2.8946,-2.8949,-2.8951,0,-2.8112,-2.819,-2.8238,-2.8285,-2.8313,-2.8388,-2.8434,-2.8427,-2.8476,-2.8537,-2.8597,-2.8676,-2.8739,-2.8873,-2.8894,-2.8966,-2.8955,-2.9052,-2.8966,-2.8969,-2.896,-2.8956,-2.8965,-2.9071,-2.9073,-2.9076,-2.9078,0,-2.8339,-2.8337,-2.8405,-2.8473,-2.8529,-2.8583,-2.8633,-2.8673,-2.8671,-2.8728,-2.8812,-2.8861,-2.8957,-2.9037,-2.9108,-2.9134,-2.9107,-2.9104,-2.9129,-2.9137,-2.9134,-2.9139,-2.8842,-2.9098,-2.9096,-2.9095,-2.9094,-2.9093,-2.8504,-2.8571,-2.8616,-2.8692,-2.8728,-2.8776,-2.8841,-2.8858,-2.8927,-2.9005,-2.8996,-2.9089,-2.9136,-2.9228,-2.926,-2.9333,-2.93,-2.9336,-2.9345,-2.9355,-2.9366,-2.912,-2.9346,-2.9345,-2.9344,-2.9344,-2.9344,0,-2.8731,-2.8758,-2.8827,-2.8898,-2.8958,-2.8924,-2.8978,-2.9031,-2.9113,-2.9158,-2.922,-2.9317,-2.9394,-2.942,-2.9495,-2.9549,-2.9538,-2.9569,-2.9566,-2.9573,-2.939,-2.9362,-2.9576,-2.9576,-2.9576,-2.9576,-2.9576,-2.9576,-2.8857,-2.897,-2.8974,-2.9105,-2.913,-2.9221,-2.9254,-2.9298,-2.9334,-2.9443,-2.9506,-2.9522,-2.956,-2.9637,-2.9707,-2.9712,-2.9743,-2.978,-2.9781,-2.9609,-2.9586,-2.9564,-2.9538,-2.9786,-2.9786,-2.9958,-2.996,-2.9961]},{"header":{"parameterUnit":"m.s-1","parameterCategory":1,"la1":30.2991,"la2":30.254,"lo1":-89.0895,"lo2":-89.0444,"dy":0.0017,"dx":0.0017,"nx":28,"ny":28,"refTime":"2023-11-02T09:00:00:Z","depth":0,"parameterNumber":3,"parameterNumberName":"V-component_of_WINDS"},"data":[0,0,0,0,0,0,0,0,0,0,0,0,0,0,0,0,0,0,0,0,0,0,0,0,0,0,0,0,0,0,0,0,0,0,0,0,0,0,0,0,0,0,0,0,0,0,0,0,0,0,0,0,0,0,0,0,0,0,-2.8094,-2.8094,0,-2.8026,-2.8025,-2.8024,-2.7934,-2.7932,-2.7931,-2.7929,-2.7859,-2.7859,-2.7858,0,0,0,0,0,0,0,0,0,0,0,0,0,-2.8147,-2.8146,-2.8094,-2.8094,-2.8093,-2.8026,-2.8025,-2.8024,-2.7934,-2.7932,-2.793,-2.7929,-2.7859,-2.7859,-2.7858,0,0,0,0,0,0,0,0,0,0,0,0,0,-2.8106,-2.8146,-2.8095,-2.804,-2.8034,-2.8026,-2.8025,-2.8024,-2.7934,-2.7932,-2.793,-2.7928,-2.7859,-2.7859,-2.7858,-2.7898,0,0,-2.7856,-2.7855,0,0,0,0,0,0,0,0,-2.8108,-2.8104,-2.8049,-2.8043,-2.8037,-2.7986,-2.8017,-2.7982,-2.7935,-2.7972,-2.7929,-2.7927,-2.7903,-2.7899,-2.7891,-2.7895,-2.7892,-2.7856,-2.7855,-2.7855,-2.7855,0,0,0,0,0,0,0,-2.8111,-2.8106,-2.8067,-2.8048,-2.8041,-2.8018,-2.801,-2.801,-2.7951,-2.7969,-2.7962,-2.7955,-2.7899,-2.7892,-2.7888,-2.7891,-2.7856,-2.7855,-2.7855,-2.7854,-2.7923,-2.7925,0,0,0,0,0,0,-2.8122,-2.8109,-2.8069,-2.8065,-2.8068,-2.8019,-2.801,-2.8005,-2.7951,-2.794,-2.7957,-2.7951,-2.7894,-2.7889,-2.7885,-2.7928,-2.7855,-2.7854,-2.7854,-2.792,-2.7923,-2.7926,0,0,0,0,0,0,-2.8124,-2.812,-2.8072,-2.8085,-2.8078,-2.8021,-2.8016,-2.8004,-2.7996,-2.7942,-2.7931,-2.796,-2.7892,-2.7886,-2.7895,-2.7924,-2.7854,-2.7853,-2.7918,-2.7921,-2.7924,-2.8014,0,0,0,0,0,0,-2.8126,-2.8121,-2.8136,-2.8086,-2.8077,-2.8084,-2.8017,-2.8005,-2.7995,-2.7987,-2.7942,-2.7932,-2.789,-2.7897,-2.7895,-2.7922,-2.7853,-2.7915,-2.7919,-2.7923,-2.8008,-2.802,-2.803,0,0,0,0,0,-2.8128,-2.8164,-2.8137,-2.8133,-2.8095,-2.8086,-2.808,-2.8031,-2.7998,-2.8012,-2.7977,-2.7933,-2.7922,-2.7899,-2.7895,-2.7923,-2.7913,-2.7918,-2.7923,-2.8003,-2.8018,-2.803,0,0,0,0,0,0,-2.8219,-2.8157,-2.8126,-2.8147,-2.8122,-2.807,-2.8087,-2.8048,-2.8032,-2.8025,-2.7964,-2.7955,-2.7971,-2.7947,-2.7923,-2.7958,-2.791,-2.7915,-2.7973,-2.7986,-2.7997,-2.8002,-2.7852,0,0,0,0,0,-2.8241,-2.8239,-2.8185,-2.8209,-2.8198,-2.8145,-2.8139,-2.8103,-2.8075,-2.8064,-2.8029,-2.8003,-2.7993,-2.7988,-2.7976,-2.8004,-2.7993,-2.8022,-2.8033,-2.8042,-2.8047,-2.8058,-2.807,-2.7942,-2.7942,-2.7942,0,0,-2.8287,-2.8253,-2.8256,-2.8226,-2.8203,-2.8201,-2.8137,-2.8138,-2.8137,-2.8064,-2.807,-2.8044,-2.8011,-2.8029,-2.8035,-2.801,-2.8079,-2.8048,-2.8056,-2.8056,-2.8065,-2.8077,-2.8088,-2.7946,-2.7945,-2.7944,0,0,-2.8371,-2.8346,-2.8362,-2.834,-2.8305,-2.8269,-2.8273,-2.8227,-2.8207,-2.8212,-2.8157,-2.8154,-2.8138,-2.8117,-2.8104,-2.8178,-2.8137,-2.8176,-2.8233,-2.8246,-2.8256,-2.8264,-2.829,-2.83,-2.8181,-2.8181,-2.8181,0,-2.8434,-2.843,-2.8376,-2.8381,-2.8369,-2.8303,-2.8319,-2.83,-2.8263,-2.8256,-2.8228,-2.8206,-2.818,-2.8191,-2.821,-2.8201,-2.8204,-2.8181,-2.8259,-2.8267,-2.8274,-2.8298,-2.8308,-2.8186,-2.8185,-2.8185,-2.8184,0,-2.8508,-2.8506,-2.8523,-2.8489,-2.8479,-2.849,-2.8437,-2.8433,-2.8398,-2.8365,-2.837,-2.8336,-2.8315,-2.8315,-2.8281,-2.8321,-2.8307,-2.827,-2.8221,-2.8292,-2.8314,-2.8322,-2.8193,-2.8191,-2.819,-2.8189,0,0,-2.8648,-2.8583,-2.859,-2.8573,-2.8529,-2.8526,-2.8533,-2.8513,-2.8511,-2.8487,-2.8491,-2.8479,-2.8444,-2.8429,-2.8392,-2.8403,-2.8463,-2.8364,-2.8362,-2.8383,-2.8504,-2.8533,-2.8544,-2.8435,-2.8436,-2.8438,-2.8507,0,-2.8723,-2.8732,-2.8683,-2.8704,-2.8701,-2.8638,-2.8644,-2.8617,-2.8586,-2.8579,-2.8544,-2.8537,-2.8491,-2.8482,-2.849,-2.8454,-2.8486,-2.8448,-2.8437,-2.8438,-2.8448,-2.8555,-2.8585,-2.8653,-2.8515,-2.8516,-2.8517,0,-2.8812,-2.8793,-2.8815,-2.8768,-2.8765,-2.8772,-2.8748,-2.8742,-2.871,-2.8687,-2.867,-2.8627,-2.8629,-2.8583,-2.8585,-2.856,-2.8553,-2.8534,-2.8536,-2.8533,-2.8482,-2.8555,-2.8673,-2.8683,-2.853,-2.8529,-2.8528,0,-2.8912,-2.8892,-2.8901,-2.8889,-2.8835,-2.8841,-2.8819,-2.8785,-2.8775,-2.8755,-2.8748,-2.8728,-2.8717,-2.8702,-2.8654,-2.8625,-2.8662,-2.8612,-2.8642,-2.8644,-2.8653,-2.8654,-2.8772,-2.8649,-2.8649,-2.8649,-2.8649,0,-2.9001,-2.9017,-2.8945,-2.8951,-2.8966,-2.8909,-2.8926,-2.8897,-2.8867,-2.8866,-2.881,-2.881,-2.8746,-2.8739,-2.8701,-2.8708,-2.8704,-2.8685,-2.8675,-2.869,-2.8692,-2.8684,-2.8678,-2.8651,-2.8651,-2.865,-2.865,0,-2.9115,-2.9068,-2.9074,-2.9023,-2.901,-2.9024,-2.8979,-2.8982,-2.8947,-2.8946,-2.8943,-2.8888,-2.8877,-2.8827,-2.8804,-2.8778,-2.8798,-2.8778,-2.8809,-2.8802,-2.8835,-2.8833,-2.8952,-2.8965,-2.8835,-2.8837,-2.8838,0,-2.9176,-2.9186,-2.9135,-2.913,-2.9111,-2.9104,-2.9094,-2.9038,-2.9029,-2.8993,-2.9,-2.8984,-2.8968,-2.8952,-2.891,-2.8891,-2.887,-2.8913,-2.8867,-2.8882,-2.887,-2.887,-2.8871,-2.8924,-2.8925,-2.8927,-2.8928,0,-2.9287,-2.9263,-2.9251,-2.923,-2.9219,-2.92,-2.9178,-2.9177,-2.9114,-2.9108,-2.9095,-2.9083,-2.9058,-2.9042,-2.9017,-2.8993,-2.895,-2.8943,-2.8949,-2.8964,-2.8982,-2.8972,-2.8836,-2.894,-2.8939,-2.8938,-2.8937,-2.8937,-2.9376,-2.9381,-2.9347,-2.9334,-2.9311,-2.9291,-2.9291,-2.9256,-2.9245,-2.9221,-2.9188,-2.918,-2.9146,-2.9106,-2.9086,-2.9078,-2.9054,-2.9063,-2.9065,-2.9068,-2.9075,-2.8983,-2.9073,-2.9072,-2.9072,-2.9072,-2.9071,0,-2.9484,-2.9458,-2.9447,-2.9418,-2.9408,-2.9368,-2.9341,-2.9335,-2.9328,-2.93,-2.9285,-2.927,-2.9254,-2.9211,-2.919,-2.9192,-2.9172,-2.9188,-2.9188,-2.9183,-2.9098,-2.9095,-2.9205,-2.9205,-2.9205,-2.9205,-2.9205,-2.9205,-2.9539,-2.9547,-2.9518,-2.9513,-2.9487,-2.9478,-2.9466,-2.9447,-2.9424,-2.941,-2.9397,-2.9368,-2.9333,-2.931,-2.9293,-2.928,-2.9275,-2.9299,-2.928,-2.9202,-2.9189,-2.9177,-2.9173,-2.9298,-2.9298,-2.9364,-2.9365,-2.9366]}]]